Vertical_Velocity
-2 0 -2 1 -3 1 -3 -3 -0 -0 0 -4 -6 -1 -1 1 -1 17 -8 2 3 1 -0 -0 -2 -2 -0 -0 -3 2 -5 -1 -1 0 -1 -2 -1 -3 -2 -3 -4 -7 -5 -1 1 2 -7 -1 1 -4 -5 8 -3 2
-2 -1 3 -3 -1 -1 -0 -0 -1 0 -3 -4 -6 -2 4 1 4 2 11 3 10 0 1 4 2 1 0 -2 1 -0 0 -1 -1 -2 -1 -1 0 -0 -2 -2 1 -3 -6 -9 -7 -3 2 2 -1 1 -0 -9 2 -4
-4 -2 -5 1 2 -0 -3 -1 -1 0 0 -4 -2 2 0 -1 1 13 12 8 6 1 -1 2 2 3 3 4 -2 -5 2 3 -1 -5 -2 1 -2 -1 -2 -2 -1 -0 -0 -2 -3 0 2 4 3 -0 1 -4 -1 0
2 0 0 1 -0 0 2 -2 2 -2 -1 -1 3 4 -2 -4 -11 15 3 -3 8 0 -4 1 1 0 0 2 0 3 -2 -2 -1 0 -2 -1 -1 -0 0 1 -3 0 -4 0 2 1 -1 1 4 -1 2 0 -3 -1
-0 1 2 1 -1 -0 2 -3 1 -3 -1 -6 -1 -5 -7 3 -14 -4 10 5 5 2 -3 0 4 2 -1 -2 1 -2 -2 -5 -2 -1 -1 1 0 -2 0 -1 0 -2 -2 -2 -3 -7 -3 -6 2 2 -4 -3 -2 -3
-1 -3 -0 1 -2 -0 3 -3 2 -2 -1 -2 -1 -3 9 -2 -4 2 8 2 7 4 -7 -1 1 4 4 6 6 8 9 2 -1 -3 2 1 -0 -2 -2 -0 0 1 1 2 -4 1 2 1 2 1 -3 -2 -0 -1
-0 1 1 -1 -1 3 -2 -1 -2 -4 -4 0 2 -7 9 11 -9 4 6 5 12 2 -5 2 1 -2 0 1 -1 0 1 -2 -4 0 -1 -0 -0 -5 -1 -0 1 1 -1 2 6 -4 3 5 -4 1 -0 -0 -0 1
-0 0 1 -2 0 1 -0 5 -3 -0 -2 -3 1 -2 0 19 -2 2 2 10 9 -7 -2 -2 2 -0 -1 -1 -1 0 -1 -1 -3 2 -0 -1 -2 -1 -1 -1 0 2 3 3 1 0 -1 -2 -0 -1 0 1 -1 -2
-2 -2 2 1 5 -2 -3 1 -0 -2 -0 -5 -1 -2 -2 3 -1 3 0 3 -2 -5 -2 -2 -3 1 -0 0 -0 -1 0 -2 2 -1 -0 -1 1 -0 1 -0 0 1 -2 -4 2 2 1 0 2 2 1 1 -0 -1
-2 -2 3 -2 -1 -0 -1 -2 -1 -0 -1 -4 -3 -1 -2 4 1 2 -6 -5 -5 -4 -3 -1 2 -0 -1 -0 1 -2 -1 0 -1 3 -0 -2 1 1 1 2 1 -1 1 -0 -5 2 1 -1 -1 -1 -2 -3 -3 -1
-0 -2 2 -2 -3 -0 -0 3 -0 -0 -2 -1 -4 -1 1 6 1 -1 -1 -4 -2 -2 -0 2 0 -1 1 -3 -0 1 0 -0 -3 -2 -4 -0 -1 -1 3 1 2 2 4 3 0 -1 -1 -2 -1 -0 -1 -1 -2 -0
-3 -2 0 5 -2 -0 -1 2 -0 -1 -1 -0 1 3 3 -1 -3 -5 0 -2 -2 2 0 -1 -0 -1 2 0 -6 -2 -2 -5 -2 0 -5 -1 -5 1 3 3 1 0 -0 0 1 1 0 -0 -1 -2 -1 0 2 2
7 1 1 -2 -0 -1 1 -2 -1 -4 -1 -2 1 -1 -3 -2 -5 -2 0 -1 -1 0 1 1 -1 0 1 -1 -3 -4 -5 -2 1 -5 -1 -5 0 1 2 2 0 0 -0 -1 -0 1 0 -2 -1 2 3 2 -1 -2
5 1 -2 -2 -2 -2 -1 3 2 -2 -3 -3 -2 -5 -0 -2 0 2 1 1 2 1 1 -0 -2 -2 1 -6 0 -7 1 -5 -3 -2 -4 -3 -0 0 0 1 1 1 0 -1 -0 1 1 1 0 -1 -3 -3 -4 -5
5 0 -3 -2 -2 -2 7 1 2 1 -3 -4 -2 -2 -1 3 -1 1 2 1 3 4 1 -0 -2 -3 -0 -4 -1 -2 -5 -1 -2 -4 -3 -0 0 0 1 1 1 1 -1 -2 -2 -2 -2 -3 -3 -3 -2 -1 1 1
-1 -2 -2 2 2 -0 -1 -0 -0 -1 -3 -2 -3 -3 -0 -3 -1 -1 1 0 3 1 -0 -2 -1 -4 -0 -2 -4 -1 -4 -3 -5 -2 1 1 1 1 1 1 1 1 0 0 1 0 -0 1 0 -1 -1 1 0 -0
1 -0 7 -0 -1 -0 -1 -4 -1 -5 -1 -3 -2 3 3 2 2 1 1 1 2 -1 -0 -1 -5 -3 -3 -3 -1 -1 -3 -3 -1 1 2 2 1 1 1 1 0 -0 0 1 -0 1 1 1 1 0 -2 -0 -0 0
-0 1 4 -1 -1 -1 -1 -3 -2 -1 -1 -1 -0 1 1 2 3 2 3 -0 -3 -1 0 -2 -3 -3 -1 -2 -2 -3 1 3 1 2 2 2 1 -0 -0 -1 -1 -1 -1 -1 -1 -1 -1 -2 -1 0 -1 -1 -0 0
-1 0 1 -1 -4 -2 -3 -4 -1 -3 2 1 -0 1 0 1 2 5 4 -0 -0 -0 2 -1 -4 -0 -0 -1 0 2 2 1 1 1 1 0 -1 -1 -1 -1 -1 -1 -1 -0 -1 -0 -0 -1 -1 -0 -1 -0 -1 -2
-2 -2 -3 -3 -2 -1 -2 -2 -0 -3 -1 0 0 -3 0 0 1 4 1 -6 -5 1 -5 -2 1 2 2 6 5 3 1 1 1 -0 1 -0 -1 0 -0 -1 -1 -1 -1 0 2 1 -0 -0 2 -1 -2 -0 -1 -3
0 -1 -2 1 -4 -3 -3 -0 -1 -1 -0 -3 -1 0 -1 -2 -2 -2 -2 0 -4 -0 0 3 6 7 5 3 2 -0 -2 -1 -0 1 1 1 1 1 0 -0 -0 -0 -2 -2 -3 -2 -0 -1 -1 -0 -1 -1 -0 0
-2 -1 -1 -2 -2 -1 -1 0 0 -0 -0 -2 -2 -0 -1 -1 -1 -1 1 -3 0 3 2 4 3 2 1 -0 -1 -1 -1 0 -0 -0 -0 -2 -3 -2 -2 -3 -2 -1 -1 1 1 0 0 0 -0 -1 0 -0 1 1
-1 -2 -2 -2 -2 -2 -0 0 -0 -1 -4 0 0 -2 -2 -1 0 1 -1 2 3 4 3 1 1 3 1 1 3 1 1 1 -1 -0 -0 1 1 1 1 1 2 -0 -1 1 0 -0 -1 1 -0 -0 -0 0 -0 -0
-2 -2 -3 -3 -1 -1 -0 -2 -0 -1 -0 -2 -1 -0 -1 -1 -1 -2 0 1 3 6 2 4 5 3 3 2 -0 1 -1 0 -1 -1 1 2 0 -2 -2 1 -0 -1 0 1 1 0 0 0 1 1 0 -1 -0 -1
-2 -3 -1 -2 -0 -2 -3 -2 -2 -3 -0 -0 -1 -1 -1 -0 -1 -1 1 2 -0 -1 -1 2 3 2 -1 1 2 0 0 -1 -2 -3 -3 -1 -1 3 4 1 1 -1 -1 -2 -2 -1 -0 -0 0 0 0 0 1 0
-5 -1 -3 1 -1 -3 -0 -1 -0 -1 -0 -1 0 0 -0 -1 -3 1 2 1 0 1 1 -1 -2 -1 -1 -1 0 -0 -2 -1 0 2 3 2 -2 -2 -2 -3 -5 -2 1 2 0 -1 -1 1 1 1 1 2 2 1
-3 -2 1 2 1 1 -1 0 1 -1 -1 -1 -1 -1 -2 -2 0 3 2 1 1 2 2 2 2 2 0 -1 0 1 0 0 -1 -2 -1 -1 -1 0 -0 -1 -3 -1 -0 -0 2 2 0 1 1 1 1 1 0 0
0 -0 0 -1 -0 0 -1 -0 -0 -0 -1 1 1 -2 -2 -2 0 1 1 2 2 2 1 1 1 1 1 1 1 2 4 0 -1 -1 -2 2 0 2 3 4 4 3 4 3 1 1 1 1 0 1 1 0 0 0
-0 -0 -0 -1 -0 -1 0 0 1 1 1 1 -2 0 1 1 1 1 2 1 1 -1 0 2 1 1 1 1 0 -1 -2 -2 -4 -5 -3 -2 -5 -1 1 3 0 -1 0 1 3 1 1 1 -0 -0 0 0 -0 0
0 -0 -0 -1 -1 -0 1 1 0 1 1 0 0 -2 -0 1 1 1 1 1 1 -1 -0 0 0 1 -0 -1 -0 -0 -0 -0 -2 -3 -4 -2 -0 2 0 -2 0 2 1 1 -0 1 2 1 1 0 0 1 0 0
0 0 -0 -0 0 0 0 1 1 1 1 0 1 -1 -1 -0 1 0 0 0 -0 -0 1 0 -0 -1 -1 -0 0 1 2 2 1 4 4 4 1 -1 -0 2 2 2 1 0 0 0 0 1 0 0 0 1 0 1
0 -0 0 -0 0 1 0 0 -0 -0 0 0 -0 1 -0 -0 -1 0 1 0 0 0 -0 -1 -1 -0 0 0 -1 -1 -0 -1 -1 1 -1 -3 -1 0 1 2 2 1 0 1 1 1 0 0 0 1 0 0 0 1
0 0 -0 0 0 0 0 0 -0 -0 0 -0 -0 -0 0 -0 -1 -0 -0 -1 -0 -1 -1 0 1 -0 -0 -0 -0 1 1 1 1 0 2 2 2 2 -0 -0 -0 -0 1 1 1 1 1 1 1 1 1 0 1 1
Height
1485 1481 1477 1474 1469 1465 1460 1455 1450 1446 1442 1437 1430 1426 1419 1416 1414 1408 1400 1403 1404 1404 1404 1405 1406 1409 1410 1412 1416 1419 1424 1427 1433 1437 1438 1441 1443 1443 1447 1451 1456 1456 1463 1467 1471 1473 1469 1462 1470 1473 1473 1476 1480 1487
1479 1476 1472 1468 1463 1459 1455 1451 1446 1442 1438 1434 1429 1423 1416 1411 1405 1398 1393 1394 1397 1403 1404 1403 1403 1405 1407 1409 1412 1416 1416 1421 1424 1430 1435 1436 1437 1445 1441 1449 1450 1454 1449 1455 1458 1457 1461 1463 1463 1467 1471 1474 1483 1488
1474 1470 1465 1461 1457 1453 1449 1446 1441 1437 1433 1429 1424 1420 1413 1405 1398 1395 1391 1390 1393 1398 1403 1404 1404 1404 1405 1407 1410 1414 1417 1420 1422 1425 1429 1434 1440 1442 1447 1448 1448 1450 1450 1454 1455 1465 1465 1465 1469 1472 1477 1479 1485 1489
1467 1463 1458 1454 1451 1447 1443 1441 1437 1432 1428 1424 1419 1412 1405 1402 1394 1391 1389 1390 1392 1396 1399 1406 1404 1404 1405 1406 1409 1411 1412 1416 1420 1422 1430 1435 1437 1441 1444 1446 1447 1450 1450 1458 1469 1469 1470 1472 1473 1475 1479 1482 1486 1489
1460 1456 1453 1449 1445 1441 1438 1436 1432 1428 1424 1419 1414 1408 1404 1399 1395 1392 1389 1387 1390 1394 1398 1403 1405 1406 1405 1406 1407 1409 1412 1415 1419 1425 1430 1437 1441 1444 1449 1449 1452 1451 1455 1459 1463 1462 1463 1469 1474 1477 1480 1483 1486 1489
1454 1450 1446 1443 1439 1436 1434 1431 1428 1424 1420 1417 1412 1406 1401 1398 1393 1390 1386 1386 1387 1388 1393 1403 1409 1408 1408 1408 1408 1409 1412 1415 1419 1426 1434 1438 1442 1445 1449 1452 1450 1450 1452 1453 1455 1459 1462 1466 1473 1478 1481 1484 1486 1487
1449 1445 1441 1438 1434 1432 1430 1428 1425 1421 1417 1413 1409 1402 1397 1394 1392 1391 1389 1386 1386 1387 1392 1403 1408 1411 1410 1411 1413 1415 1415 1419 1423 1429 1436 1440 1442 1443 1450 1451 1451 1453 1454 1454 1457 1459 1466 1470 1474 1478 1481 1483 1485 1485
1446 1441 1437 1433 1431 1428 1426 1424 1421 1417 1414 1409 1404 1399 1395 1389 1391 1391 1388 1387 1387 1389 1393 1401 1409 1413 1412 1414 1417 1420 1421 1424 1429 1434 1439 1442 1446 1449 1454 1453 1453 1454 1457 1459 1461 1463 1466 1471 1475 1478 1480 1481 1482 1481
1442 1437 1433 1430 1427 1425 1423 1420 1418 1414 1411 1407 1401 1396 1393 1392 1392 1392 1391 1390 1389 1395 1394 1398 1405 1412 1413 1417 1421 1424 1425 1431 1436 1439 1443 1446 1450 1452 1452 1452 1454 1456 1458 1460 1463 1466 1469 1473 1476 1478 1479 1479 1477 1475
1438 1434 1431 1427 1425 1422 1420 1417 1415 1412 1409 1405 1400 1397 1395 1393 1393 1393 1392 1393 1393 1395 1397 1404 1406 1412 1413 1418 1424 1426 1429 1436 1444 1449 1447 1448 1451 1451 1451 1453 1454 1456 1458 1461 1464 1468 1470 1472 1474 1475 1475 1474 1473 1471
1435 1431 1428 1426 1423 1421 1418 1415 1413 1411 1408 1405 1401 1400 1398 1396 1396 1395 1396 1398 1401 1402 1405 1409 1410 1411 1415 1418 1424 1429 1436 1442 1452 1451 1451 1458 1458 1453 1452 1453 1455 1458 1461 1464 1466 1468 1470 1471 1472 1472 1471 1470 1468 1467
1432 1429 1426 1424 1421 1419 1417 1415 1413 1411 1409 1406 1404 1400 1398 1397 1397 1399 1403 1404 1404 1408 1410 1412 1413 1417 1417 1416 1422 1434 1444 1447 1456 1454 1459 1465 1456 1453 1453 1453 1456 1460 1462 1465 1467 1468 1469 1469 1469 1468 1467 1465 1462 1461
1430 1426 1424 1422 1420 1418 1417 1415 1413 1411 1409 1406 1405 1403 1402 1403 1402 1403 1406 1409 1408 1409 1411 1412 1416 1418 1422 1422 1431 1439 1450 1461 1456 1465 1462 1459 1454 1454 1455 1456 1459 1462 1464 1465 1466 1467 1466 1466 1465 1463 1460 1458 1457 1455
1427 1425 1423 1421 1420 1418 1416 1415 1414 1412 1410 1409 1409 1411 1412 1410 1411 1411 1411 1412 1413 1412 1413 1415 1420 1423 1425 1430 1440 1450 1458 1461 1476 1476 1463 1455 1452 1455 1457 1459 1461 1462 1463 1464 1464 1464 1463 1461 1459 1458 1456 1454 1451 1449
1425 1424 1423 1422 1420 1419 1418 1416 1415 1414 1413 1413 1415 1423 1419 1418 1417 1415 1414 1414 1415 1417 1418 1419 1423 1426 1433 1440 1447 1455 1464 1472 1463 1459 1453 1450 1452 1455 1457 1459 1460 1460 1460 1460 1460 1459 1458 1457 1455 1452 1451 1449 1446 1443
1425 1425 1424 1423 1422 1421 1419 1418 1417 1415 1416 1420 1422 1423 1421 1420 1421 1420 1418 1419 1420 1420 1420 1421 1429 1437 1447 1449 1453 1464 1465 1465 1454 1451 1450 1451 1454 1456 1457 1458 1458 1458 1458 1457 1456 1455 1453 1451 1448 1446 1444 1443 1440 1438
1428 1428 1428 1427 1425 1422 1421 1421 1420 1420 1423 1426 1427 1428 1427 1426 1426 1425 1425 1425 1425 1425 1427 1429 1439 1449 1449 1459 1460 1458 1457 1448 1446 1449 1452 1454 1455 1456 1457 1457 1457 1456 1455 1454 1453 1451 1448 1446 1444 1441 1439 1437 1435 1433
1431 1432 1431 1430 1429 1427 1425 1424 1425 1427 1431 1433 1432 1432 1431 1430 1429 1429 1429 1430 1430 1429 1430 1435 1437 1451 1460 1458 1455 1448 1447 1447 1450 1453 1454 1455 1455 1455 1455 1455 1454 1453 1452 1450 1448 1446 1444 1441 1439 1437 1434 1432 1430 1428
1436 1435 1435 1433 1432 1430 1429 1430 1431 1435 1438 1437 1437 1435 1435 1435 1434 1434 1434 1434 1433 1432 1433 1435 1442 1453 1450 1447 1447 1447 1449 1451 1453 1454 1455 1455 1455 1454 1454 1453 1452 1451 1448 1446 1444 1442 1439 1437 1435 1432 1429 1427 1425 1423
1440 1439 1437 1436 1434 1432 1433 1436 1438 1439 1442 1442 1441 1440 1439 1440 1439 1438 1438 1438 1437 1437 1439 1444 1450 1450 1449 1449 1450 1451 1453 1454 1455 1454 1455 1454 1454 1454 1452 1451 1449 1447 1445 1442 1440 1437 1435 1432 1430 1428 1426 1425 1422 1419
1443 1442 1440 1439 1437 1436 1438 1440 1442 1444 1445 1445 1445 1444 1444 1443 1442 1441 1442 1442 1443 1447 1450 1453 1454 1454 1453 1453 1453 1454 1455 1455 1455 1454 1453 1453 1452 1451 1450 1448 1446 1443 1440 1438 1435 1433 1431 1429 1427 1424 1422 1419 1417 1415
1445 1443 1442 1441 1440 1440 1442 1444 1445 1446 1447 1447 1448 1448 1448 1448 1448 1447 1447 1447 1453 1456 1456 1456 1455 1455 1455 1455 1455 1455 1455 1455 1455 1454 1453 1452 1451 1450 1448 1445 1442 1440 1437 1435 1432 1430 1428 1425 1423 1420 1418 1415 1414 1412
1447 1446 1444 1443 1443 1444 1449 1446 1446 1447 1448 1450 1450 1451 1453 1452 1452 1452 1453 1457 1461 1460 1458 1457 1457 1457 1457 1457 1457 1457 1456 1455 1454 1453 1452 1451 1450 1448 1446 1443 1439 1436 1433 1432 1429 1427 1424 1422 1419 1417 1415 1413 1411 1410
1449 1448 1446 1447 1448 1449 1450 1449 1450 1450 1451 1452 1453 1456 1456 1455 1455 1456 1462 1466 1467 1463 1460 1459 1459 1459 1459 1459 1457 1456 1455 1455 1454 1452 1451 1449 1447 1445 1443 1440 1437 1435 1432 1429 1426 1423 1421 1418 1416 1414 1413 1411 1410 1409
1453 1454 1453 1452 1452 1451 1454 1454 1454 1454 1460 1459 1457 1458 1458 1458 1460 1464 1467 1469 1468 1466 1464 1462 1461 1460 1459 1460 1459 1457 1456 1455 1453 1451 1450 1447 1446 1444 1442 1439 1436 1432 1429 1426 1423 1420 1418 1416 1414 1413 1411 1410 1409 1407
1456 1457 1456 1456 1456 1456 1458 1461 1461 1461 1461 1461 1460 1460 1459 1460 1465 1469 1472 1472 1470 1468 1465 1463 1462 1463 1462 1461 1460 1459 1457 1455 1453 1451 1449 1447 1445 1442 1438 1435 1431 1429 1426 1424 1420 1417 1415 1414 1412 1411 1410 1409 1408 1407
1461 1460 1460 1459 1459 1458 1459 1459 1460 1460 1463 1462 1461 1461 1462 1471 1474 1473 1473 1472 1470 1469 1468 1467 1466 1465 1464 1462 1461 1460 1458 1456 1453 1451 1448 1446 1444 1442 1439 1435 1431 1428 1424 1420 1418 1415 1413 1411 1410 1409 1408 1407 1406 1406
1463 1463 1463 1462 1460 1460 1460 1461 1462 1464 1462 1462 1463 1468 1471 1472 1474 1474 1473 1472 1471 1471 1469 1468 1467 1466 1465 1464 1462 1461 1460 1457 1454 1451 1448 1448 1445 1442 1438 1435 1431 1425 1421 1417 1414 1412 1410 1408 1407 1406 1405 1405 1405 1405
1464 1464 1463 1462 1462 1462 1463 1463 1464 1464 1464 1464 1465 1469 1471 1472 1473 1473 1473 1472 1472 1471 1471 1470 1468 1467 1465 1464 1463 1461 1459 1455 1452 1448 1446 1443 1439 1438 1435 1430 1425 1421 1417 1414 1412 1410 1408 1406 1405 1404 1403 1403 1403 1403
1466 1465 1464 1464 1465 1466 1466 1465 1465 1466 1465 1465 1467 1470 1472 1474 1474 1474 1474 1473 1473 1472 1470 1469 1468 1467 1466 1465 1464 1462 1460 1456 1452 1450 1446 1442 1439 1435 1431 1426 1423 1420 1416 1413 1410 1408 1406 1405 1403 1402 1401 1401 1401 1402
1466 1466 1465 1465 1466 1467 1466 1466 1466 1467 1468 1469 1469 1470 1472 1475 1476 1475 1475 1474 1473 1472 1471 1470 1468 1467 1466 1465 1464 1462 1460 1457 1453 1451 1447 1443 1439 1434 1431 1427 1423 1419 1415 1411 1409 1406 1404 1403 1402 1401 1400 1400 1401 1402
1467 1466 1466 1466 1467 1468 1467 1467 1467 1468 1469 1470 1472 1473 1475 1476 1476 1477 1476 1475 1475 1473 1472 1470 1469 1468 1466 1464 1463 1461 1458 1455 1452 1449 1445 1441 1438 1434 1430 1427 1423 1419 1414 1411 1408 1406 1404 1402 1401 1400 1399 1399 1400 1402
1466 1466 1466 1466 1467 1467 1468 1468 1468 1470 1471 1472 1474 1475 1476 1477 1478 1479 1477 1476 1475 1473 1472 1470 1469 1467 1466 1464 1463 1461 1458 1455 1452 1449 1446 1442 1438 1434 1430 1426 1422 1418 1414 1411 1408 1405 1403 1402 1400 1399 1399 1399 1399 1401